,,,PA_Meas_PMT16A,,PR_Meas_QMR101_102,,RH_Meas_QMH101,,SR_Meas_QMS101,,TA_Meas_QMH101,,GenWind,,GenWind,
date,time,status,PA,status,PR,status,RH,status,SR,status,TA,status,DirAvg,status,SpdAvg,
2009-05-11, 00:00:04,VALID,1003.16,VALID,0,VALID,88.1441,VALID,0.100563,VALID,24.2255,VALID,353,VALID,0.417969,
2009-05-11, 00:01:04,VALID,1003.15,VALID,0,VALID,87.9991,VALID,0.100563,VALID,24.2857,VALID,353,VALID,0.251563,
2009-05-11, 00:02:04,VALID,1003.14,VALID,0,VALID,87.9152,VALID,0.100563,VALID,24.2857,VALID,353,VALID,0.242578,
2009-05-11, 00:03:04,VALID,1003.12,VALID,0,VALID,87.8923,VALID,0,VALID,24.2857,VALID,353,VALID,0.184766,
2009-05-11, 00:04:04,VALID,1003.14,VALID,0,VALID,87.8923,VALID,0.100563,VALID,24.2644,VALID,353,VALID,0.253906,
2009-05-11, 00:05:04,VALID,1003.12,VALID,0,VALID,87.9686,VALID,0,VALID,24.2662,VALID,353,VALID,0.00234375,
2009-05-11, 00:06:04,VALID,1003.15,VALID,0,VALID,88.2509,VALID,0.100563,VALID,24.2273,VALID,353,VALID,0.202734,
2009-05-11, 00:07:04,VALID,1003.14,VALID,0,VALID,88.1365,VALID,0.100563,VALID,24.206,VALID,353,VALID,0.233594,
2009-05-11, 00:08:04,VALID,1003.14,VALID,0,VALID,87.9991,VALID,0.100563,VALID,24.2449,VALID,353,VALID,0.220703,
2009-05-11, 00:09:04,VALID,1003.12,VALID,0,VALID,87.8847,VALID,0.100563,VALID,24.2255,VALID,353,VALID,0.324609,
2009-05-11, 00:10:04,VALID,1003.11,VALID,0,VALID,88.0831,VALID,0.100563,VALID,24.1671,VALID,353,VALID,0.377734,
2009-05-11, 00:11:04,VALID,1003.12,VALID,0,VALID,88.4111,VALID,0.100563,VALID,24.13,VALID,353,VALID,0.503516,
2009-05-11, 00:12:04,VALID,1003.12,VALID,0,VALID,88.6705,VALID,0,VALID,24.1318,VALID,353,VALID,0.308203,
2009-05-11, 00:13:04,VALID,1003.11,VALID,0,VALID,88.5942,VALID,0,VALID,24.1513,VALID,353,VALID,0.179688,
2009-05-11, 00:14:04,VALID,1003.14,VALID,0,VALID,88.5332,VALID,0,VALID,24.1513,VALID,353,VALID,0.00585938,
2009-05-11, 00:15:04,VALID,1003.1,VALID,0,VALID,88.5179,VALID,0,VALID,24.1105,VALID,353,VALID,0.177734,
2009-05-11, 00:16:04,VALID,1003.12,VALID,0,VALID,88.5942,VALID,0,VALID,24.0734,VALID,355,VALID,0.0464844,
2009-05-11, 00:17:04,VALID,1003.1,VALID,0,VALID,88.6018,VALID,0,VALID,24.015,VALID,23,VALID,0.388672,
2009-05-11, 00:18:04,VALID,1003.04,VALID,0,VALID,88.9909,VALID,0,VALID,23.9159,VALID,23,VALID,0.153906,
2009-05-11, 00:19:04,VALID,1003.03,VALID,0,VALID,89.2503,VALID,0,VALID,23.8593,VALID,23,VALID,0.387109,
2009-05-11, 00:20:04,VALID,1003.02,VALID,0,VALID,89.5707,VALID,0,VALID,23.7407,VALID,23,VALID,0.6875,
2009-05-11, 00:21:04,VALID,1002.99,VALID,0,VALID,89.8377,VALID,0,VALID,23.6823,VALID,23,VALID,0.487891,
2009-05-11, 00:22:04,VALID,1002.97,VALID,0,VALID,90.1123,VALID,0,VALID,23.6062,VALID,23,VALID,0.483984,
2009-05-11, 00:23:04,VALID,1002.97,VALID,0,VALID,90.3946,VALID,0,VALID,23.5071,VALID,23,VALID,0.483984,
2009-05-11, 00:24:04,VALID,1002.97,VALID,0,VALID,90.7608,VALID,0,VALID,23.5089,VALID,23,VALID,0.283594,
2009-05-11, 00:25:04,VALID,1003,VALID,0,VALID,91.249,VALID,0,VALID,23.4682,VALID,23,VALID,0.295312,
2009-05-11, 00:26:04,VALID,1002.97,VALID,0,VALID,91.4321,VALID,0,VALID,23.47,VALID,23,VALID,0.205078,
2009-05-11, 00:27:04,VALID,1002.99,VALID,0,VALID,91.5237,VALID,0,VALID,23.4487,VALID,23,VALID,0.262109,
2009-05-11, 00:28:04,VALID,1002.96,VALID,0,VALID,91.5542,VALID,0,VALID,23.4293,VALID,23,VALID,0.225781,
2009-05-11, 00:29:04,VALID,1002.98,VALID,0,VALID,91.6763,VALID,0,VALID,23.4311,VALID,23,VALID,0.269531,
2009-05-11, 00:30:04,VALID,1002.97,VALID,0,VALID,91.7831,VALID,0,VALID,23.4098,VALID,23,VALID,0.314063,
2009-05-11, 00:31:04,VALID,1002.95,VALID,0,VALID,91.8594,VALID,0,VALID,23.3904,VALID,23,VALID,0.0570313,
2009-05-11, 00:32:04,VALID,1002.96,VALID,0,VALID,91.8517,VALID,0,VALID,23.3514,VALID,23,VALID,0.247266,
2009-05-11, 00:33:04,VALID,1002.97,VALID,0,VALID,91.8746,VALID,0,VALID,23.3727,VALID,12,VALID,0.269531,
2009-05-11, 00:34:04,VALID,1002.92,VALID,0,VALID,91.8899,VALID,0,VALID,23.3337,VALID,12,VALID,0.252344,
2009-05-11, 00:35:04,VALID,1002.91,VALID,0,VALID,91.8899,VALID,0,VALID,23.2931,VALID,12,VALID,0.292578,
2009-05-11, 00:36:04,VALID,1002.9,VALID,0,VALID,91.9509,VALID,0,VALID,23.2736,VALID,12,VALID,0.258984,
2009-05-11, 00:37:04,VALID,1002.92,VALID,0,VALID,91.989,VALID,0,VALID,23.2347,VALID,12,VALID,0.299609,
2009-05-11, 00:38:04,VALID,1002.91,VALID,0,VALID,92.1798,VALID,0,VALID,23.2347,VALID,12,VALID,0.260547,
2009-05-11, 00:39:04,VALID,1002.89,VALID,0,VALID,92.2789,VALID,0,VALID,23.2541,VALID,334,VALID,0.241016,
2009-05-11, 00:40:04,VALID,1002.9,VALID,0,VALID,92.3247,VALID,0.100563,VALID,23.2541,VALID,304,VALID,0.151172,
2009-05-11, 00:41:04,VALID,1002.88,VALID,0,VALID,92.3629,VALID,0,VALID,23.2931,VALID,300,VALID,0.283984,
2009-05-11, 00:42:04,VALID,1002.87,VALID,0,VALID,92.4086,VALID,0,VALID,23.332,VALID,298,VALID,0.623047,
2009-05-11, 00:43:04,VALID,1002.82,VALID,0,VALID,92.1874,VALID,0,VALID,23.4311,VALID,302,VALID,0.228516,
2009-05-11, 00:44:04,VALID,1002.78,VALID,0,VALID,91.8822,VALID,0,VALID,23.4682,VALID,300,VALID,0.349219,
2009-05-11, 00:45:04,VALID,1002.77,VALID,0,VALID,91.5466,VALID,0,VALID,23.5071,VALID,300,VALID,0.0648438,
2009-05-11, 00:46:04,VALID,1002.74,VALID,0,VALID,91.3406,VALID,0,VALID,23.546,VALID,300,VALID,0,
2009-05-11, 00:47:04,VALID,1002.75,VALID,0,VALID,91.0888,VALID,0,VALID,23.5868,VALID,300,VALID,0,
2009-05-11, 00:48:04,VALID,1002.73,VALID,0,VALID,91.0431,VALID,0,VALID,23.6044,VALID,298,VALID,0.4625,
2009-05-11, 00:49:04,VALID,1002.73,VALID,0,VALID,90.8066,VALID,0,VALID,23.6239,VALID,296,VALID,0.2,
2009-05-11, 00:50:04,VALID,1002.69,VALID,0,VALID,90.5624,VALID,0,VALID,23.6841,VALID,296,VALID,0.00195313,
2009-05-11, 00:51:04,VALID,1002.7,VALID,0,VALID,90.3565,VALID,0,VALID,23.6823,VALID,296,VALID,0.133203,
2009-05-11, 00:52:04,VALID,1002.68,VALID,0,VALID,89.8911,VALID,0,VALID,23.6452,VALID,22,VALID,0.356641,
2009-05-11, 00:53:04,VALID,1002.67,VALID,0,VALID,89.9674,VALID,0,VALID,23.5673,VALID,22,VALID,0.277344,
2009-05-11, 00:54:04,VALID,1002.65,VALID,0,VALID,90.1429,VALID,0,VALID,23.4682,VALID,22,VALID,0.395312,
2009-05-11, 00:55:04,VALID,1002.63,VALID,0,VALID,90.387,VALID,0,VALID,23.3904,VALID,22,VALID,0.464844,
2009-05-11, 00:56:04,VALID,1002.64,VALID,0,VALID,90.7226,VALID,0,VALID,23.3125,VALID,22,VALID,0.441797,
2009-05-11, 00:57:04,VALID,1002.6,VALID,0,VALID,91.188,VALID,0,VALID,23.2736,VALID,22,VALID,0.279297,
2009-05-11, 00:58:04,VALID,1002.59,VALID,0,VALID,91.5008,VALID,0,VALID,23.2364,VALID,22,VALID,0.214844,
2009-05-11, 00:59:04,VALID,1002.57,VALID,0,VALID,91.8212,VALID,0,VALID,23.2559,VALID,22,VALID,0.239453,
2009-05-11, 01:00:04,VALID,1002.57,VALID,0,VALID,92.0119,VALID,0,VALID,23.1957,VALID,22,VALID,0.259375,
2009-05-11, 01:01:04,VALID,1002.57,VALID,0,VALID,92.2103,VALID,0,VALID,23.217,VALID,22,VALID,0.225781,
2009-05-11, 01:02:04,VALID,1002.58,VALID,0,VALID,92.3857,VALID,0,VALID,23.1763,VALID,22,VALID,0.386328,
2009-05-11, 01:03:04,VALID,1002.54,VALID,0,VALID,92.6146,VALID,0,VALID,23.217,VALID,22,VALID,0.322266,
2009-05-11, 01:04:04,VALID,1002.55,VALID,0,VALID,92.8816,VALID,0,VALID,23.2347,VALID,22,VALID,0.496875,
2009-05-11, 01:05:04,VALID,1002.55,VALID,0,VALID,92.6833,VALID,0,VALID,23.2559,VALID,22,VALID,0.253906,
2009-05-11, 01:06:04,VALID,1002.53,VALID,0,VALID,92.6222,VALID,0,VALID,23.1957,VALID,22,VALID,0.372266,
2009-05-11, 01:07:04,VALID,1002.5,VALID,0,VALID,92.7062,VALID,0,VALID,23.217,VALID,22,VALID,0.343359,
2009-05-11, 01:08:04,VALID,1002.49,VALID,0,VALID,92.7138,VALID,0,VALID,23.1957,VALID,22,VALID,0,
2009-05-11, 01:09:04,VALID,1002.51,VALID,0,VALID,92.813,VALID,0,VALID,23.1975,VALID,22,VALID,0.359766,
2009-05-11, 01:10:04,VALID,1002.52,VALID,0,VALID,92.8053,VALID,0,VALID,23.1763,VALID,22,VALID,0.220703,
2009-05-11, 01:11:04,VALID,1002.52,VALID,0,VALID,92.8358,VALID,0,VALID,23.1568,VALID,22,VALID,0.0078125,
2009-05-11, 01:12:04,VALID,1002.54,VALID,0,VALID,92.8816,VALID,0,VALID,23.178,VALID,22,VALID,0.147656,
2009-05-11, 01:13:04,VALID,1002.55,VALID,0,VALID,92.9426,VALID,0,VALID,23.1586,VALID,22,VALID,0,
2009-05-11, 01:14:04,VALID,1002.55,VALID,0,VALID,93.1029,VALID,0,VALID,23.1586,VALID,22,VALID,0.146875,
2009-05-11, 01:15:04,VALID,1002.57,VALID,0,VALID,92.9655,VALID,0,VALID,23.1179,VALID,22,VALID,0,
2009-05-11, 01:16:04,VALID,1002.59,VALID,0,VALID,92.9961,VALID,0,VALID,23.0984,VALID,22,VALID,0,
2009-05-11, 01:17:04,VALID,1002.61,VALID,0,VALID,93.2097,VALID,0,VALID,23.1391,VALID,22,VALID,0,
2009-05-11, 01:18:04,VALID,1002.63,VALID,0,VALID,93.2554,VALID,0,VALID,23.1374,VALID,22,VALID,0,
2009-05-11, 01:19:04,VALID,1002.61,VALID,0,VALID,93.0723,VALID,0,VALID,23.1391,VALID,22,VALID,0.389062,
2009-05-11, 01:20:04,VALID,1002.63,VALID,0,VALID,92.9274,VALID,0,VALID,23.0595,VALID,22,VALID,0.222266,
2009-05-11, 01:21:04,VALID,1002.63,VALID,0,VALID,92.9808,VALID,0,VALID,23.0401,VALID,22,VALID,0.33125,
2009-05-11, 01:22:04,VALID,1002.65,VALID,0,VALID,93.0266,VALID,0,VALID,23.0418,VALID,22,VALID,0.492188,
2009-05-11, 01:23:04,VALID,1002.61,VALID,0,VALID,93.0571,VALID,0,VALID,23.0224,VALID,22,VALID,0.371484,
2009-05-11, 01:24:04,VALID,1002.6,VALID,0,VALID,93.1105,VALID,0,VALID,22.9817,VALID,22,VALID,0,
2009-05-11, 01:25:04,VALID,1002.61,VALID,0,VALID,93.1181,VALID,0.100563,VALID,22.9428,VALID,22,VALID,0,
2009-05-11, 01:26:04,VALID,1002.62,VALID,0,VALID,93.1791,VALID,0,VALID,22.9251,VALID,22,VALID,0,
2009-05-11, 01:27:04,VALID,1002.63,VALID,0,VALID,93.3317,VALID,0,VALID,22.9039,VALID,22,VALID,0,
2009-05-11, 01:28:04,VALID,1002.61,VALID,0,VALID,93.4309,VALID,0,VALID,22.9251,VALID,22,VALID,0,
2009-05-11, 01:29:04,VALID,1002.61,VALID,0,VALID,93.4538,VALID,0,VALID,22.9039,VALID,22,VALID,0,
2009-05-11, 01:30:04,VALID,1002.58,VALID,0,VALID,93.4843,VALID,0,VALID,22.9056,VALID,22,VALID,0.13125,
2009-05-11, 01:31:04,VALID,1002.56,VALID,0,VALID,93.4996,VALID,0,VALID,22.9039,VALID,22,VALID,0.255078,
2009-05-11, 01:32:04,VALID,1002.55,VALID,0,VALID,93.553,VALID,0,VALID,22.9056,VALID,22,VALID,0.188281,
2009-05-11, 01:33:04,VALID,1002.51,VALID,0,VALID,93.6064,VALID,0,VALID,22.8844,VALID,22,VALID,0.223828,
2009-05-11, 01:34:04,VALID,1002.52,VALID,0,VALID,93.6979,VALID,0,VALID,22.8844,VALID,22,VALID,0.326562,
2009-05-11, 01:35:04,VALID,1002.53,VALID,0,VALID,93.7895,VALID,0,VALID,22.9039,VALID,22,VALID,0.226953,
2009-05-11, 01:36:04,VALID,1002.51,VALID,0,VALID,93.8352,VALID,0,VALID,22.9445,VALID,22,VALID,0.346875,
2009-05-11, 01:37:04,VALID,1002.5,VALID,0,VALID,93.82,VALID,0,VALID,22.9445,VALID,22,VALID,0.4,
2009-05-11, 01:38:04,VALID,1002.54,VALID,0,VALID,93.8505,VALID,0,VALID,22.9233,VALID,21,VALID,0.50625,
2009-05-11, 01:39:04,VALID,1002.49,VALID,0,VALID,93.8429,VALID,0,VALID,22.9233,VALID,21,VALID,0.467578,
2009-05-11, 01:40:04,VALID,1002.53,VALID,0,VALID,93.8657,VALID,0,VALID,22.9233,VALID,19,VALID,0.507813,
2009-05-11, 01:41:04,VALID,1002.57,VALID,0,VALID,93.8886,VALID,0,VALID,22.9445,VALID,16,VALID,0.550781,
2009-05-11, 01:42:04,VALID,1002.54,VALID,0,VALID,93.9497,VALID,0,VALID,22.9445,VALID,16,VALID,0.516016,
2009-05-11, 01:43:04,VALID,1002.57,VALID,0,VALID,94.0031,VALID,0,VALID,22.9428,VALID,16,VALID,0.368359,
2009-05-11, 01:44:04,VALID,1002.58,VALID,0,VALID,94.0641,VALID,0,VALID,22.9622,VALID,16,VALID,0.409375,
2009-05-11, 01:45:04,VALID,1002.6,VALID,0,VALID,94.0717,VALID,0,VALID,22.9834,VALID,16,VALID,0.359375,
2009-05-11, 01:46:04,VALID,1002.6,VALID,0,VALID,94.0412,VALID,0,VALID,22.9428,VALID,16,VALID,0.3625,
2009-05-11, 01:47:04,VALID,1002.62,VALID,0,VALID,93.9954,VALID,0,VALID,22.9428,VALID,16,VALID,0.442969,
2009-05-11, 01:48:04,VALID,1002.6,VALID,0,VALID,94.0031,VALID,0,VALID,22.9233,VALID,16,VALID,0.324219,
2009-05-11, 01:49:04,VALID,1002.59,VALID,0,VALID,93.9268,VALID,0,VALID,22.9251,VALID,16,VALID,0.391797,
2009-05-11, 01:50:04,VALID,1002.59,VALID,0,VALID,93.9268,VALID,0,VALID,22.8844,VALID,16,VALID,0.536328,
2009-05-11, 01:51:04,VALID,1002.59,VALID,0,VALID,93.8123,VALID,0.100563,VALID,22.826,VALID,16,VALID,0.663672,
2009-05-11, 01:52:04,VALID,1002.57,VALID,0,VALID,93.9573,VALID,0,VALID,22.8278,VALID,16,VALID,0.605078,
2009-05-11, 01:53:04,VALID,1002.57,VALID,0,VALID,93.9573,VALID,0.100563,VALID,22.826,VALID,16,VALID,0.572656,
2009-05-11, 01:54:04,VALID,1002.57,VALID,0,VALID,93.9039,VALID,0,VALID,22.7677,VALID,16,VALID,0.511719,
2009-05-11, 01:55:04,VALID,1002.55,VALID,0,VALID,93.9725,VALID,0,VALID,22.7677,VALID,16,VALID,0.532031,
2009-05-11, 01:56:04,VALID,1002.58,VALID,0,VALID,94.0259,VALID,0,VALID,22.7888,VALID,16,VALID,0.530859,
2009-05-11, 01:57:04,VALID,1002.57,VALID,0,VALID,94.0717,VALID,0,VALID,22.7871,VALID,16,VALID,0.483984,
2009-05-11, 01:58:04,VALID,1002.58,VALID,0,VALID,94.1404,VALID,0,VALID,22.7871,VALID,16,VALID,0.257813,
2009-05-11, 01:59:04,VALID,1002.58,VALID,0,VALID,94.1785,VALID,0,VALID,22.8083,VALID,16,VALID,0.283203,
2009-05-11, 02:00:04,VALID,1002.56,VALID,0,VALID,94.2701,VALID,0,VALID,22.8066,VALID,16,VALID,0.114844,
2009-05-11, 02:01:04,VALID,1002.59,VALID,0,VALID,94.2472,VALID,0,VALID,22.8472,VALID,16,VALID,0,
2009-05-11, 02:02:04,VALID,1002.59,VALID,0,VALID,94.209,VALID,0,VALID,22.8472,VALID,16,VALID,0,
2009-05-11, 02:03:04,VALID,1002.6,VALID,0,VALID,94.3082,VALID,0,VALID,22.8455,VALID,16,VALID,0,
2009-05-11, 02:04:04,VALID,1002.58,VALID,0,VALID,94.3158,VALID,0,VALID,22.8861,VALID,16,VALID,0,
2009-05-11, 02:05:04,VALID,1002.6,VALID,0,VALID,94.2319,VALID,0,VALID,22.8861,VALID,16,VALID,0,
2009-05-11, 02:06:04,VALID,1002.56,VALID,0,VALID,94.2396,VALID,0,VALID,22.8861,VALID,16,VALID,0,
2009-05-11, 02:07:04,VALID,1002.59,VALID,0,VALID,94.3769,VALID,0,VALID,22.9039,VALID,16,VALID,0,
2009-05-11, 02:08:04,VALID,1002.55,VALID,0,VALID,94.354,VALID,0,VALID,22.9445,VALID,16,VALID,0,
2009-05-11, 02:09:04,VALID,1002.59,VALID,0,VALID,94.3082,VALID,0,VALID,22.9233,VALID,16,VALID,0,
2009-05-11, 02:10:04,VALID,1002.55,VALID,0,VALID,94.2548,VALID,0,VALID,22.9233,VALID,16,VALID,0,
2009-05-11, 02:11:04,VALID,1002.54,VALID,0,VALID,94.2853,VALID,0,VALID,22.9233,VALID,16,VALID,0,
2009-05-11, 02:12:04,VALID,1002.56,VALID,0,VALID,94.2472,VALID,0,VALID,22.9445,VALID,16,VALID,0,
2009-05-11, 02:13:04,VALID,1002.53,VALID,0,VALID,94.1404,VALID,0,VALID,22.8844,VALID,16,VALID,0,
2009-05-11, 02:14:04,VALID,1002.49,VALID,0,VALID,94.0794,VALID,0,VALID,22.8438,VALID,16,VALID,0,
2009-05-11, 02:15:04,VALID,1002.49,VALID,0,VALID,94.209,VALID,0,VALID,22.8455,VALID,16,VALID,0,
2009-05-11, 02:16:04,VALID,1002.49,VALID,0,VALID,94.293,VALID,0,VALID,22.8455,VALID,16,VALID,0,
2009-05-11, 02:17:04,VALID,1002.47,VALID,0,VALID,94.3998,VALID,0,VALID,22.8844,VALID,16,VALID,0,
2009-05-11, 02:18:04,VALID,1002.49,VALID,0,VALID,94.3998,VALID,0,VALID,22.9056,VALID,16,VALID,0,
2009-05-11, 02:19:04,VALID,1002.49,VALID,0,VALID,94.2853,VALID,0,VALID,22.8844,VALID,16,VALID,0,
2009-05-11, 02:20:04,VALID,1002.47,VALID,0,VALID,94.2853,VALID,0,VALID,22.8455,VALID,16,VALID,0,
2009-05-11, 02:21:04,VALID,1002.47,VALID,0,VALID,94.3464,VALID,0,VALID,22.8438,VALID,16,VALID,0,
2009-05-11, 02:22:04,VALID,1002.47,VALID,0,VALID,94.3921,VALID,0,VALID,22.8649,VALID,16,VALID,0,
2009-05-11, 02:23:04,VALID,1002.44,VALID,0,VALID,94.3464,VALID,0,VALID,22.8667,VALID,16,VALID,0,
2009-05-11, 02:24:04,VALID,1002.45,VALID,0,VALID,94.3387,VALID,0,VALID,22.826,VALID,16,VALID,0,
2009-05-11, 02:25:04,VALID,1002.44,VALID,0,VALID,94.3845,VALID,0,VALID,22.826,VALID,16,VALID,0,
2009-05-11, 02:26:04,VALID,1002.42,VALID,0,VALID,94.4684,VALID,0,VALID,22.8667,VALID,16,VALID,0,
2009-05-11, 02:27:04,VALID,1002.41,VALID,0,VALID,94.4761,VALID,0,VALID,22.8455,VALID,16,VALID,0,
2009-05-11, 02:28:04,VALID,1002.4,VALID,0,VALID,94.4913,VALID,0,VALID,22.8455,VALID,16,VALID,0,
2009-05-11, 02:29:04,VALID,1002.39,VALID,0,VALID,94.4913,VALID,0,VALID,22.826,VALID,16,VALID,0,
2009-05-11, 02:30:04,VALID,1002.37,VALID,0,VALID,94.5066,VALID,0,VALID,22.8455,VALID,16,VALID,0,
2009-05-11, 02:31:04,VALID,1002.38,VALID,0,VALID,94.5447,VALID,0,VALID,22.8861,VALID,16,VALID,0,
2009-05-11, 02:32:04,VALID,1002.37,VALID,0,VALID,94.5142,VALID,0,VALID,22.8667,VALID,16,VALID,0,
2009-05-11, 02:33:04,VALID,1002.37,VALID,0,VALID,94.5295,VALID,0,VALID,22.8649,VALID,16,VALID,0,
2009-05-11, 02:34:04,VALID,1002.37,VALID,0,VALID,94.5066,VALID,0,VALID,22.8455,VALID,16,VALID,0,
2009-05-11, 02:35:04,VALID,1002.37,VALID,0,VALID,94.5905,VALID,0,VALID,22.8667,VALID,16,VALID,0,
2009-05-11, 02:36:04,VALID,1002.35,VALID,0,VALID,94.5981,VALID,0,VALID,22.8861,VALID,16,VALID,0,
2009-05-11, 02:37:04,VALID,1002.35,VALID,0,VALID,94.6363,VALID,0,VALID,22.8649,VALID,16,VALID,0,
2009-05-11, 02:38:04,VALID,1002.36,VALID,0,VALID,94.6286,VALID,0,VALID,22.8844,VALID,16,VALID,0,
2009-05-11, 02:39:04,VALID,1002.36,VALID,0,VALID,94.6363,VALID,0,VALID,22.9251,VALID,16,VALID,0,
2009-05-11, 02:40:04,VALID,1002.36,VALID,0,VALID,94.6591,VALID,0,VALID,22.9039,VALID,16,VALID,0,
2009-05-11, 02:41:04,VALID,1002.35,VALID,0,VALID,94.7125,VALID,0,VALID,22.9021,VALID,16,VALID,0,
2009-05-11, 02:42:04,VALID,1002.36,VALID,0,VALID,94.7125,VALID,0,VALID,22.9428,VALID,16,VALID,0,
2009-05-11, 02:43:04,VALID,1002.35,VALID,0,VALID,94.6897,VALID,0,VALID,22.964,VALID,16,VALID,0,
2009-05-11, 02:44:04,VALID,1002.36,VALID,0,VALID,94.682,VALID,0,VALID,22.9428,VALID,16,VALID,0,
2009-05-11, 02:45:04,VALID,1002.34,VALID,0,VALID,94.6363,VALID,0,VALID,22.9445,VALID,16,VALID,0,
2009-05-11, 02:46:04,VALID,1002.34,VALID,0,VALID,94.6668,VALID,0,VALID,22.9233,VALID,16,VALID,0,
2009-05-11, 02:47:04,VALID,1002.33,VALID,0,VALID,94.682,VALID,0.100563,VALID,22.9428,VALID,16,VALID,0,
2009-05-11, 02:48:04,VALID,1002.36,VALID,0,VALID,94.6515,VALID,0,VALID,22.9445,VALID,16,VALID,0,
2009-05-11, 02:49:04,VALID,1002.37,VALID,0,VALID,94.6591,VALID,0,VALID,22.9445,VALID,16,VALID,0,
2009-05-11, 02:50:04,VALID,1002.38,VALID,0,VALID,94.6591,VALID,0,VALID,22.9039,VALID,16,VALID,0,
2009-05-11, 02:51:04,VALID,1002.38,VALID,0,VALID,94.6973,VALID,0,VALID,22.9445,VALID,16,VALID,0,
2009-05-11, 02:52:04,VALID,1002.39,VALID,0,VALID,94.7125,VALID,0,VALID,22.9039,VALID,16,VALID,0,
2009-05-11, 02:53:04,VALID,1002.38,VALID,0,VALID,94.6591,VALID,0,VALID,22.9039,VALID,16,VALID,0,
2009-05-11, 02:54:04,VALID,1002.38,VALID,0,VALID,94.5829,VALID,0,VALID,22.8649,VALID,16,VALID,0,
2009-05-11, 02:55:04,VALID,1002.41,VALID,0,VALID,94.5295,VALID,0,VALID,22.8472,VALID,16,VALID,0,
2009-05-11, 02:56:04,VALID,1002.41,VALID,0,VALID,94.5447,VALID,0,VALID,22.826,VALID,16,VALID,0,
2009-05-11, 02:57:04,VALID,1002.4,VALID,0,VALID,94.5752,VALID,0,VALID,22.8066,VALID,16,VALID,0,
2009-05-11, 02:58:04,VALID,1002.43,VALID,0,VALID,94.6057,VALID,0,VALID,22.8278,VALID,16,VALID,0,
2009-05-11, 02:59:04,VALID,1002.45,VALID,0,VALID,94.5981,VALID,0,VALID,22.8083,VALID,16,VALID,0,
2009-05-11, 03:00:04,VALID,1002.42,VALID,0,VALID,94.6134,VALID,0,VALID,22.8066,VALID,16,VALID,0,
2009-05-11, 03:01:04,VALID,1002.45,VALID,0,VALID,94.6515,VALID,0,VALID,22.8066,VALID,16,VALID,0,
2009-05-11, 03:02:04,VALID,1002.42,VALID,0,VALID,94.766,VALID,0,VALID,22.8649,VALID,16,VALID,0,
2009-05-11, 03:03:04,VALID,1002.44,VALID,0,VALID,94.8499,VALID,0,VALID,22.9233,VALID,16,VALID,0,
2009-05-11, 03:04:04,VALID,1002.42,VALID,0,VALID,94.8804,VALID,0,VALID,22.9834,VALID,16,VALID,0,
2009-05-11, 03:05:04,VALID,1002.41,VALID,0,VALID,94.8956,VALID,0,VALID,23.0012,VALID,16,VALID,0,
2009-05-11, 03:06:04,VALID,1002.39,VALID,0,VALID,94.7965,VALID,0,VALID,23.0012,VALID,15,VALID,0,
2009-05-11, 03:07:04,VALID,1002.4,VALID,0,VALID,94.7812,VALID,0,VALID,23.0012,VALID,9,VALID,0,
2009-05-11, 03:08:04,VALID,1002.37,VALID,0,VALID,94.8804,VALID,0,VALID,23.0206,VALID,9,VALID,0,
2009-05-11, 03:09:04,VALID,1002.4,VALID,0,VALID,94.6439,VALID,0,VALID,22.9817,VALID,9,VALID,0,
2009-05-11, 03:10:04,VALID,1002.4,VALID,0,VALID,94.6057,VALID,0,VALID,22.964,VALID,7,VALID,0,
2009-05-11, 03:11:04,VALID,1002.43,VALID,0,VALID,94.6515,VALID,0,VALID,22.9251,VALID,7,VALID,0.0152344,
2009-05-11, 03:12:04,VALID,1002.41,VALID,0,VALID,94.7507,VALID,0,VALID,22.9445,VALID,354,VALID,0.540234,
2009-05-11, 03:13:04,VALID,1002.44,VALID,0,VALID,94.7202,VALID,0,VALID,22.9233,VALID,353,VALID,0.532812,
2009-05-11, 03:14:04,VALID,1002.48,VALID,0,VALID,94.8575,VALID,0,VALID,22.9817,VALID,353,VALID,0.219922,
2009-05-11, 03:15:04,VALID,1002.47,VALID,0,VALID,94.888,VALID,0,VALID,23.0206,VALID,353,VALID,0.285547,
2009-05-11, 03:16:04,VALID,1002.52,VALID,0,VALID,94.9033,VALID,0,VALID,23.0595,VALID,353,VALID,0.476563,
2009-05-11, 03:17:04,VALID,1002.51,VALID,0,VALID,94.7736,VALID,0,VALID,23.0401,VALID,353,VALID,0.423438,
2009-05-11, 03:18:04,VALID,1002.52,VALID,0,VALID,94.6363,VALID,0,VALID,23.0224,VALID,353,VALID,0.388672,
2009-05-11, 03:19:04,VALID,1002.53,VALID,0,VALID,94.5905,VALID,0,VALID,22.964,VALID,353,VALID,0.497266,
2009-05-11, 03:20:04,VALID,1002.54,VALID,0,VALID,94.5371,VALID,0,VALID,22.9445,VALID,353,VALID,0.395312,
2009-05-11, 03:21:04,VALID,1002.53,VALID,0,VALID,94.5829,VALID,0,VALID,22.9039,VALID,353,VALID,0.503906,
2009-05-11, 03:22:04,VALID,1002.54,VALID,0,VALID,94.6057,VALID,0,VALID,22.9039,VALID,353,VALID,0.460547,
2009-05-11, 03:23:04,VALID,1002.55,VALID,0,VALID,94.6515,VALID,0,VALID,22.9039,VALID,353,VALID,0.357812,
2009-05-11, 03:24:04,VALID,1002.55,VALID,0,VALID,94.6668,VALID,0,VALID,22.9039,VALID,353,VALID,0.385938,
2009-05-11, 03:25:04,VALID,1002.57,VALID,0,VALID,94.7354,VALID,0,VALID,22.9233,VALID,353,VALID,0.435547,
2009-05-11, 03:26:04,VALID,1002.57,VALID,0,VALID,94.7278,VALID,0,VALID,22.9233,VALID,353,VALID,0.247656,
2009-05-11, 03:27:04,VALID,1002.6,VALID,0,VALID,94.682,VALID,0,VALID,22.9251,VALID,353,VALID,0.303516,
2009-05-11, 03:28:04,VALID,1002.62,VALID,0,VALID,94.6591,VALID,0,VALID,22.8844,VALID,353,VALID,0.283984,
2009-05-11, 03:29:04,VALID,1002.63,VALID,0,VALID,94.6134,VALID,0,VALID,22.8861,VALID,353,VALID,0.285156,
2009-05-11, 03:30:04,VALID,1002.62,VALID,0,VALID,94.5981,VALID,0,VALID,22.8472,VALID,353,VALID,0.507031,
2009-05-11, 03:31:04,VALID,1002.6,VALID,0,VALID,94.6134,VALID,0,VALID,22.8472,VALID,353,VALID,0.372656,
2009-05-11, 03:32:04,VALID,1002.65,VALID,0,VALID,94.7278,VALID,0,VALID,22.8649,VALID,353,VALID,0.374219,
2009-05-11, 03:33:04,VALID,1002.63,VALID,0,VALID,94.7278,VALID,0,VALID,22.8861,VALID,353,VALID,0.335938,
2009-05-11, 03:34:04,VALID,1002.62,VALID,0,VALID,94.7507,VALID,0,VALID,22.8861,VALID,353,VALID,0.262109,
2009-05-11, 03:35:04,VALID,1002.63,VALID,0,VALID,94.888,VALID,0,VALID,22.9039,VALID,353,VALID,0,
2009-05-11, 03:36:04,VALID,1002.62,VALID,0,VALID,94.8651,VALID,0,VALID,22.9233,VALID,353,VALID,0,
2009-05-11, 03:37:04,VALID,1002.65,VALID,0,VALID,94.8651,VALID,0,VALID,22.9233,VALID,353,VALID,0,
2009-05-11, 03:38:04,VALID,1002.64,VALID,0,VALID,94.7888,VALID,0,VALID,22.964,VALID,353,VALID,0.0183594,
2009-05-11, 03:39:04,VALID,1002.69,VALID,0,VALID,94.7736,VALID,0,VALID,22.9251,VALID,353,VALID,0.207422,
2009-05-11, 03:40:04,VALID,1002.67,VALID,0,VALID,94.8804,VALID,0,VALID,22.9428,VALID,353,VALID,0.251953,
2009-05-11, 03:41:04,VALID,1002.65,VALID,0,VALID,94.8651,VALID,0,VALID,22.9834,VALID,353,VALID,0.308203,
2009-05-11, 03:42:04,VALID,1002.68,VALID,0,VALID,94.7583,VALID,0,VALID,22.9445,VALID,353,VALID,0.571094,
2009-05-11, 03:43:04,VALID,1002.63,VALID,0,VALID,94.7202,VALID,0,VALID,22.9251,VALID,353,VALID,0.369922,
2009-05-11, 03:44:04,VALID,1002.67,VALID,0,VALID,94.7278,VALID,0,VALID,22.8844,VALID,353,VALID,0.432813,
2009-05-11, 03:45:04,VALID,1002.65,VALID,0,VALID,94.7507,VALID,0,VALID,22.8844,VALID,353,VALID,0.464844,
2009-05-11, 03:46:04,VALID,1002.63,VALID,0,VALID,94.7354,VALID,0,VALID,22.8861,VALID,353,VALID,0.388281,
2009-05-11, 03:47:04,VALID,1002.66,VALID,0,VALID,94.7507,VALID,0,VALID,22.8861,VALID,353,VALID,0.318359,
2009-05-11, 03:48:04,VALID,1002.68,VALID,0,VALID,94.7049,VALID,0,VALID,22.8472,VALID,353,VALID,0.195313,
2009-05-11, 03:49:04,VALID,1002.7,VALID,0,VALID,94.6897,VALID,0,VALID,22.8278,VALID,353,VALID,0.129297,
2009-05-11, 03:50:04,VALID,1002.69,VALID,0,VALID,94.7507,VALID,0,VALID,22.7871,VALID,353,VALID,0,